Weather History for Yuma MCAS, AZ

Change the Weather History Date:

Saturday, February 9, 2013

  Actual Average Record
Temperature  
Mean Temperature 53 °F 61 °F  
Max Temperature 63 °F 73 °F 88 °F (1951)
Min Temperature 43 °F 49 °F 30 °F (1933)
Degree Days  
Heating Degree Days 12 5  
Month to date heating degree days 23 45  
Since 1 July heating degree days 544 553  
Cooling Degree Days 0 1  
Month to date cooling degree days 3 8  
Year to date cooling degree days 6 14  
Growing Degree Days 3 (Base 50)    
Moisture  
Dew Point 30 °F    
Average Humidity 44    
Maximum Humidity 62    
Minimum Humidity 25    
Precipitation  
Precipitation 0.00 in 0.02 in 0.40 in (1901)
Month to date precipitation T 0.12  
Year to date precipitation 1.02 0.49  
Sea Level Pressure  
Sea Level Pressure 29.96 in    
Wind  
Wind Speed 7 mph (West)    
Max Wind Speed 21 mph    
Max Gust Speed 28 mph    
Visibility 9 miles    
Events      
T = Trace of Precipitation, MM = Missing Value Source: NWS Daily Summary

Daily Weather History Graph

Daily Weather History Graph

Search for Another Location

Airport:

Trip Planner

Search our weather history database for the weather conditions in past years. The results will help you decide how hot, cold, wet, or windy it might be!

Date:

Astronomy

Feb. 09, 2013 Rise Set
Actual Time 7:26 AM MST 6:19 PM MST
Civil Twilight 7:01 AM MST 6:44 PM MST
Nautical Twilight 6:32 AM MST 7:13 PM MST
Astronomical Twilight 6:03 AM MST 7:42 PM MST
Moon 6:41 AM MST (2/9) 6:04 PM MST (2/9)
Length of Visible Light 11h 43m
Length of Day
10h 52m
Waning Crescent, 0% of the Moon is Illuminated
Feb 9
Waning Crescent
Feb 10
New
Feb 17
First Quarter
Feb 25
Full
Mar 4
Last Quarter

Hourly Weather History & Observations

Time (MST) Temp. Windchill Dew Point Humidity Pressure Visibility Wind Dir Wind Speed Gust Speed Precip Events Conditions
12:55 AM 48.9 °F - 33.1 °F 54% 29.87 in 10.0 mi WSW 9.2 mph - N/A   Partly Cloudy
1:55 AM 46.9 °F - 33.1 °F 59% 29.88 in 10.0 mi WSW 5.8 mph - N/A   Clear
2:55 AM 46.0 °F - 32.0 °F 58% 29.88 in 10.0 mi Calm Calm - N/A   Partly Cloudy
3:55 AM 46.0 °F 43.1 °F 33.1 °F 61% 29.88 in 10.0 mi SSW 5.8 mph - N/A   Clear
4:55 AM 46.0 °F 42.5 °F 30.9 °F 56% 29.87 in 10.0 mi WNW 6.9 mph - N/A   Clear
5:55 AM 44.1 °F 41.5 °F 32.0 °F 63% 29.88 in 10.0 mi SW 4.6 mph - N/A   Clear
6:55 AM 44.1 °F 40.1 °F 32.0 °F 63% 29.91 in 10.0 mi West 6.9 mph - N/A   Clear
7:55 AM 45.0 °F 42.6 °F 32.0 °F 60% 29.94 in 10.0 mi WNW 4.6 mph - N/A   Partly Cloudy
8:55 AM 48.0 °F - 32.0 °F 54% 29.96 in 10.0 mi NW 5.8 mph - N/A   Partly Cloudy
9:55 AM 52.0 °F - 32.0 °F 47% 29.99 in 10.0 mi West 6.9 mph - N/A   Partly Cloudy
10:55 AM 55.0 °F - 28.9 °F 37% 30.00 in 10.0 mi West 12.7 mph - N/A   Partly Cloudy
11:55 AM 57.9 °F - 26.1 °F 30% 30.00 in 10.0 mi WNW 12.7 mph - N/A   Partly Cloudy
12:55 PM 61.0 °F - 27.0 °F 27% 29.99 in 10.0 mi West 18.4 mph 24.2 mph N/A   Partly Cloudy
1:55 PM 61.0 °F - 30.0 °F 31% 29.98 in 10.0 mi West 10.4 mph - N/A   Scattered Clouds
2:55 PM 61.0 °F - 28.9 °F 30% 29.98 in - West 8.1 mph - N/A   Scattered Clouds
3:55 PM 62.1 °F - 28.9 °F 29% 29.97 in 7.0 mi West 15.0 mph 21.9 mph N/A   Scattered Clouds
4:55 PM 61.0 °F - 25.0 °F 25% 29.98 in 7.0 mi West 11.5 mph - N/A   Partly Cloudy
5:55 PM 60.1 °F - 27.0 °F 28% 29.98 in 7.0 mi WNW 6.9 mph - N/A   Partly Cloudy
6:55 PM 57.0 °F - 28.0 °F 33% 29.99 in 7.0 mi WNW 3.5 mph - N/A   Partly Cloudy
7:55 PM 55.0 °F - 28.9 °F 37% 30.00 in 7.0 mi Calm Calm - N/A   Partly Cloudy
8:55 PM 53.1 °F - 30.9 °F 43% 30.02 in 7.0 mi West 3.5 mph - N/A   Clear
9:55 PM 52.0 °F - 30.0 °F 43% 30.03 in 7.0 mi WSW 3.5 mph - N/A   Clear
10:55 PM 50.0 °F - 32.0 °F 50% 30.04 in 7.0 mi SW 4.6 mph - N/A   Clear
11:55 PM 50.0 °F - 32.0 °F 50% 30.05 in 7.0 mi Calm Calm - N/A   Clear